Regional Weather Roundup
Issued by NWS

Home | Current Version | Previous Version | Graphics & Text | Print | Product List | Glossary On
Versions: 1 2 3 4 5 6 7 8 9 10 11 12 13 14 15 16 17 18 19 20 21 22 23 24 25 26 27
000
ASUS45 KPSR 241310
RWRAZ

ARIZONA HOURLY REGIONAL WEATHER ROUNDUP
NATIONAL WEATHER SERVICE PHOENIX AZ
600 AM MST SUN JUL 24 2016

NOTE: FAIR INDICATES FEW OR NO CLOUDS BELOW 12,000 FEET WITH NO
SIGNIFICANT WEATHER AND/OR OBSTRUCTIONS TO VISIBILITY.

AZZ001>003-036-241400-
NORTHWEST ARIZONA

CITY           SKY/WX    TMP DP  RH WIND       PRES   REMARKS
BULLHEAD CITY  CLEAR     90  54  29 CALM      29.76R
KINGMAN        CLEAR     80  48  32 S8        29.99R
$$

AZZ004>008-015-016-018-241400-
NORTH CENTRAL ARIZONA

CITY           SKY/WX    TMP DP  RH WIND       PRES   REMARKS
GRAND CANYON   CLEAR     54  48  80 CALM      30.27R
WILLIAMS       PTCLDY    59  48  67 S8        30.35R
PRESCOTT       CLEAR     67  55  65 CALM      30.15R
FLAGSTAFF      PTCLDY    56  50  80 CALM      30.29R
PAYSON         CLEAR     75  46  35 SW6       30.17R
PAGE           CLEAR     81  37  20 SE8       30.03R
$$

AZZ009>014-017-241400-
NORTHEAST ARIZONA

CITY           SKY/WX    TMP DP  RH WIND       PRES   REMARKS
WINSLOW        PTCLDY    63  45  51 CALM      30.13R
SAINT JOHNS    MOCLDY    66  49  54 S3        30.18R
WINDOW ROCK    PTCLDY    59  52  77 CALM      30.27S
SHOW LOW       PTCLDY    63  48  59 SW3       30.25R
$$

AZZ023-241400-
GREATER PHOENIX AREA

CITY           SKY/WX    TMP DP  RH WIND       PRES   REMARKS
PHOENIX        PTCLDY    91  59  33 E7        29.86R
BUCKEYE        CLEAR     86  55  35 SW8       29.90R
LUKE AFB       CLEAR     90  58  33 SW16      29.86R
DEER VALLEY    CLEAR     88  56  33 SW10      29.89R
SCOTTSDALE     CLEAR     89  57  33 SW3       29.92R
MESA-FALCON    CLEAR    N/A N/A N/A VRB5      29.88
MESA-GATEWAY   PTCLDY    88  57  35 S8        29.91R
CHANDLER       CLEAR     88  57  35 S18       29.89
$$

AZZ027-028-241400-
SOUTHWEST MARICOPA COUNTY AND PINAL COUNTY

CITY           SKY/WX    TMP DP  RH WIND       PRES   REMARKS
CASA GRANDE    CLEAR     88  57  35 S12       29.94R
GILA BEND      FAIR      90  58  34 S15       29.85R
$$

AZZ503-504-507>509-241400-
SOUTHEAST ARIZONA

CITY           SKY/WX    TMP DP  RH WIND       PRES   REMARKS
TUCSON         PTCLDY    82  63  52 SW15G21   30.03R
DAVIS-MONTHAN  CLEAR     80  65  59 SW16G23   30.03R
NOGALES        CLOUDY    71  66  84 N7        30.13R
SIERRA VISTA   CLOUDY    73  61  66 W14       30.15S
DOUGLAS        CLOUDY    71  60  68 E6        30.10S
SAFFORD        PTCLDY    78  55  44 NE8       29.98R
$$

AZZ020-021-025-026-031-241400-
SOUTHWEST ARIZONA

CITY           SKY/WX    TMP DP  RH WIND       PRES   REMARKS
YUMA           PTCLDY    86  74  67 S24G32    29.79R
$$

CAZ031-033-041-043-047-048-061-241400-
SOUTHERN CALIFORNIA

CITY           SKY/WX    TMP DP  RH WIND       PRES   REMARKS
DOWNTOWN L.A.  CLEAR     70  64  81 CALM      29.84R
L.A. AIRPORT   PTCLDY    68  64  87 E3        29.85R
SAN DIEGO      CLOUDY    64  64 100 W3        29.85R FOG
BURBANK        CLEAR     67  46  47 N3        29.86R
ONTARIO        PTCLDY    73  56  54 CALM      29.86R
RIVERSIDE      CLEAR     72  57  59 CALM      29.86R
PALM SPRINGS   CLEAR     88  52  29 CALM      29.79R
EL CENTRO NAS  CLEAR     82  73  74 E7        29.77R
IMPERIAL       CLEAR     86  74  67 SE12      29.75R
BLYTHE         CLEAR     88  65  46 S15       29.78R
NEEDLES        CLEAR     94  59  31 SW9       29.77R
$$

NVZ020-UTZ003-241400-
SOUTHERN NEVADA-UTAH

CITY           SKY/WX    TMP DP  RH WIND       PRES   REMARKS
LAS VEGAS      CLEAR     88  41  19 W5        29.80R
SALT LAKE CITY PTCLDY    65  43  44 E3        30.08R
$$

NMZ009-TXZ055-241400-
NEW MEXICO-WEST TEXAS

CITY           SKY/WX    TMP DP  RH WIND       PRES   REMARKS
ALBUQUERQUE    CLOUDY    77  51  40 W9        30.14R
EL PASO        PTCLDY    78  43  28 N10       29.99R
$$


........................KEY........................
SKY/WX - SKY CONDITION/WEATHER
TMP    - TEMPERATURE IN FAHRENHEIT
DP     - DEW POINT IN FAHRENHEIT
RH     - RELATIVE HUMIDITY IN PERCENT
WIND   - DIRECTION AND SPEED IN MILES PER HOUR (MPH)
VRB    - VARIABLE WIND DIRECTION
PRES   - MEAN SEA LEVEL PRESSURE IN INCHES OF MERCURY
         F - FALLING PRESSURE   R - RISING PRESSURE
         S - STEADY PRESSURE
VSB    - VISIBILITY IN MILES
HX     - HEAT INDEX IN FAHRENHEIT
WCI    - WIND CHILL INDEX IN FAHRENHEIT
TC     - TEMPERATURE IN CELSIUS WHICH IS ALSO KNOWN AS
         TEMPERATURE IN CENTIGRADE
AFB    - AIR FORCE BASE
         LUKE AFB IS LUKE AIR FORCE BASE
         DAVIS-MONTHAN IS DAVIS-MONTHAN AIR FORCE BASE
NAS    - NAVAL AIR STATION
         EL CENTRO NAS IS EL CENTRO NAVAL AIR STATION
N/A    - NOT AVAILABLE





USA.gov is the U.S. government's official web portal to all federal, state and local government web resources and services.